Location: Lake Almanor
(40.2485°N, 121.1442°W)
Time: 01:37:21
(UTC-08:00)

STARLINK-1123 - Pass Details

Date: 02 February 2020
Orbit: 548 x 551 km, 53.0° (Epoch: 22 February)

Event Time Altitude Azimuth Distance (km) Brightness Sun altitude
Rises 17:47:27 0° 310° (NW) 2,723 7.7 -5.0°
Reaches altitude 10° 17:49:41 10° 312° (NW) 1,827 6.7 -5.4°
Maximum altitude 17:53:50 74° 37° (NE) 575 3.6 -6.2°
Drops below altitude 10° 17:57:59 10° 124° (SE) 1,820 5.9 -7.0°
Sets 18:00:12 0° 126° (SE) 2,711 6.8 -7.4°
